Regional Weather Roundup
Issued by NWS Kansas City/Pleasant Hill, MO

Home | Current Version | Previous Version | Text Only | Print | Product List | Glossary On
Versions: 1 2 3 4 5 6 7 8 9 10 11 12 13 14 15 16 17 18 19 20 21 22 23 24 25 26 27 28 29 30 31 32 33 34 35 36 37 38 39 40 41 42 43 44 45 46 47 48 49 50
000
ASUS43 KEAX 242304
RWREAX

WEATHER ROUNDUP FOR EASTERN KANSAS AND NORTHWEST MISSOURI
NATIONAL WEATHER SERVICE KANSAS CITY/PLEASANT HILL MO
600 PM CDT FRI OCT 24 2014

KSZ040-057-103>105-MOZ028-029-037-043-250000-
...KANSAS CITY METROPOLITAN AREA...

CITY           SKY/WX    TMP DP  RH WIND       PRES   REMARKS
K.C. INTL      MOCLDY    73  63  70 SW13      29.93S
K.C. DOWNTOWN  PTCLDY    75  62  64 S13       29.93S
LEES SUMMIT    CLEAR     74  61  63 SW12      29.95F
OLATHE - IXD   CLEAR     73  62  68 S12       29.96F
OLATHE - OJC   CLEAR     73  63  70 S8        29.95F
LAWRENCE       CLEAR     74  62  66 S12       29.94S

$$

MOZ001>008-011>017-020>025-030>033-038>040-044>046-053-054-250000-
...NORTHERN AND CENTRAL MISSOURI...

CITY           SKY/WX    TMP DP  RH WIND       PRES   REMARKS
ST. JOSEPH     MOCLDY    75  63  66 SW9       29.91R
MOSBY          MOCLDY    75  61  60 S8        29.92S
WHITEMAN AFB   PTCLDY    73  62  68 SW16      29.96S
CLINTON        PTCLDY    73  63  68 SW6       29.99S HAZE
SEDALIA        MOCLDY    73  61  65 SW9       29.99S
WARSAW         NOT AVBL
MARSHALL       MOCLDY    75  63  64 S7        29.96F
CHILLICOTHE      N/A     72  62  71 S7        29.92F
MOBERLY        MOCLDY    72  57  60 S6        29.96F
KIRKSVILLE     MOCLDY    67  61  81 S9        29.93F

$$

MOZ041-047>049-056>058-063>065-088>090-097-250000-
...EASTERN AND SOUTHERN MISSOURI...

CITY           SKY/WX    TMP DP  RH WIND       PRES   REMARKS
ST. LOUIS INTL MOCLDY    71  49  45 S5        30.00F
SPIRIT OF STL  MOCLDY    68  50  52 S3        29.99F
COLUMBIA       MOCLDY    69  60  73 S8        29.99S
JEFFERSON CITY MOCLDY    73  59  61 S5        29.98F
MEXICO         MOCLDY    72  64  78 S8        29.98S
ROLLA          MOCLDY    67  58  72 S8        30.01F
LEBANON        PTCLDY    70  59  68 S3        30.05S
OSAGE BEACH    MOCLDY    73  59  60 S9        30.01F
SPRINGFIELD    CLOUDY    69  61  75 SW6       30.05S
BRANSON        CLOUDY    72  61  68 SW3       30.08R
JOPLIN         MOCLDY    71  61  70 SW8       30.04S
WEST PLAINS    PTCLDY    68  57  68 S3        30.08S

$$

IAZ060-094-KSZ022-034>040-054-083-096-NEZ052-066-093-250000-
...KANSAS...SOUTHEAST NEBRASKA AND IOWA...

CITY           SKY/WX    TMP DP  RH WIND       PRES   REMARKS
TOPEKA         PTCLDY    78  63  59 S7        29.93S
MANHATTAN      CLEAR     80  63  55 SW12      29.92R
EMPORIA        PTCLDY    71  60  68 SW12      29.96F
CHANUTE        MOCLDY    74  63  68 S12       30.01S
WICHITA        PTCLDY    81  60  48 SW10      29.99R
OMAHA          MOCLDY    73  56  54 W3        29.91R
LINCOLN        MOCLDY    75  55  49 NW3       29.93S
FALLS CITY     MOCLDY    78  64  61 SW6       29.89S
LAMONI         MOCLDY    68  62  81 SW3       29.92S
DES MOINES     CLOUDY    66  60  81 SW5       29.90R

$$




USA.gov is the U.S. government's official web portal to all federal, state and local government web resources and services.